Wind_Speed
15 15 14 14 15 15 15 15 15 15 15 16 16 15 15 15 14 14 14 14 14 14 14 14 14 13 13 13 13 12 12 12 12 12 13 13 13 13 14 13 13 13 13
16 16 16 15 15 16 16 16 16 16 16 16 16 16 16 16 16 16 15 14 15 15 15 15 15 14 14 14 13 13 13 14 14 14 14 14 14 15 15 15 14 14 15
18 17 16 16 17 17 17 17 17 17 16 17 17 17 17 18 18 17 17 16 15 16 16 15 15 15 15 14 14 14 14 15 15 15 15 15 15 15 15 16 15 15 16
19 18 18 17 18 18 18 18 18 18 18 18 18 18 18 18 18 18 18 17 17 16 16 16 16 16 16 15 15 15 16 16 16 16 16 16 16 16 16 17 17 17 18
19 19 19 19 18 18 18 18 18 18 18 18 18 19 19 19 19 19 19 18 18 17 17 17 17 17 17 17 17 17 17 17 17 17 17 17 17 17 17 17 18 18 19
20 20 20 20 20 20 19 19 19 19 19 18 18 19 19 19 19 19 20 20 20 19 19 18 19 18 18 18 18 19 18 18 18 18 18 18 18 18 18 18 18 19 19
21 21 22 22 22 22 21 21 20 20 20 19 18 18 18 18 18 19 19 19 19 19 19 19 19 19 19 19 20 20 20 20 19 19 19 19 19 19 19 20 20 20 20
23 23 23 23 23 23 22 22 21 21 20 20 20 19 19 19 19 20 20 19 19 19 19 19 19 20 20 20 20 20 20 20 20 20 20 20 20 20 20 21 22 22 22
24 23 24 23 23 23 22 22 21 21 21 20 21 20 20 20 20 19 19 19 19 19 19 19 20 20 20 20 20 20 20 20 20 21 21 21 21 22 22 22 22 23 23
24 24 24 24 23 23 23 22 22 22 21 21 21 21 21 21 21 20 20 20 20 20 19 19 20 21 21 21 21 21 21 22 22 23 22 22 23 23 23 23 24 24 24
25 24 24 24 24 23 23 23 23 22 22 22 22 21 21 21 21 21 21 21 21 21 21 21 21 21 22 22 22 22 22 23 24 24 24 23 24 24 24 25 25 25 25
26 25 25 26 25 24 24 24 24 24 24 23 23 22 22 22 22 21 21 21 21 21 21 21 22 22 22 22 22 22 22 22 24 24 24 24 24 25 25 26 27 27 27
27 26 26 27 26 25 25 25 25 25 24 24 23 23 23 22 22 22 22 22 22 22 22 22 23 23 23 23 23 23 23 23 23 24 25 25 25 25 26 26 27 27 28
28 27 26 27 26 26 25 25 24 25 25 25 24 24 24 23 23 23 23 24 24 24 24 24 24 24 24 24 25 25 25 25 25 26 26 26 26 26 26 27 27 27 28
28 27 27 27 27 27 26 26 25 25 25 25 25 25 25 25 25 25 25 25 25 25 26 26 26 25 25 26 26 27 27 27 27 27 27 27 27 27 27 27 27 28 28
29 28 27 27 27 27 27 27 26 26 26 26 26 27 27 27 27 27 27 27 27 26 26 26 26 27 27 27 27 28 28 29 28 28 28 29 28 28 28 28 28 29 29
29 29 29 28 28 28 28 27 27 27 27 27 27 27 28 27 27 27 28 28 28 28 27 27 28 28 28 28 28 29 29 30 30 29 29 30 30 29 29 30 29 30 30
30 30 30 30 29 30 29 28 28 28 28 27 27 28 28 28 27 28 28 28 28 28 28 28 29 29 29 29 29 30 30 30 30 30 30 31 31 31 30 30 31 31 31
31 31 32 31 31 31 30 29 29 29 29 28 28 28 28 28 28 28 28 28 29 29 29 29 29 30 30 30 30 30 31 31 31 30 30 31 31 31 31 32 32 32 33
32 32 33 32 32 31 31 30 30 29 29 29 29 29 29 29 29 28 28 29 29 29 29 29 30 30 30 30 30 30 31 31 31 31 31 32 32 33 33 33 33 33 33
33 32 32 32 32 32 31 31 30 30 30 29 30 30 30 29 29 29 29 29 30 30 30 30 30 30 31 31 31 31 31 32 32 32 32 33 33 34 34 35 35 34 35
32 32 32 32 32 32 31 31 30 30 30 30 30 30 30 30 29 29 30 30 30 31 31 31 30 31 31 31 31 32 32 32 33 33 33 33 33 34 34 34 35 36 36
31 31 32 31 31 31 31 31 31 30 31 31 31 30 31 30 30 30 30 31 31 31 31 31 31 31 31 31 31 32 32 32 33 33 33 33 33 33 34 34 35 36 36
32 31 31 31 31 32 31 31 31 31 31 31 31 32 32 31 31 31 31 31 31 31 31 31 31 32 32 32 32 32 32 32 33 33 33 33 33 33 33 34 35 35 36
31 31 31 31 31 32 31 31 30 31 32 32 32 32 32 31 31 31 31 31 32 32 32 33 33 33 33 33 33 33 33 33 33 33 33 33 33 33 33 34 34 35 36
32 31 31 30 30 31 30 30 30 31 31 31 31 31 32 32 32 32 32 32 32 32 33 34 34 34 34 34 34 34 34 34 34 34 33 33 33 33 33 33 33 34 35
Wind_Direction
273 268 269 269 267 267 268 270 269 269 270 269 268 270 273 276 278 279 279 278 276 276 276 274 273 273 271 270 268 268 269 269 269 273 275 276 278 280 280 280 280 279 281
275 271 269 267 267 267 267 270 270 270 270 269 266 267 271 274 276 277 277 277 276 276 276 274 273 273 271 270 268 267 268 270 270 272 274 277 278 279 278 278 281 280 280
273 270 269 268 269 269 269 269 269 270 271 272 271 270 271 273 274 275 275 274 274 274 274 273 273 273 271 269 268 268 269 270 271 273 274 276 277 278 279 279 281 281 283
272 269 269 268 269 269 269 270 271 270 273 274 272 270 270 272 273 273 273 272 272 273 272 271 272 271 269 269 269 270 270 270 271 273 273 273 274 275 277 278 279 282 284
271 269 269 268 267 267 270 272 272 272 272 271 271 269 270 272 273 273 272 270 270 271 271 270 271 269 268 268 270 270 271 271 272 274 274 273 274 276 276 278 280 283 284
270 268 268 267 266 266 267 270 272 272 271 271 270 270 272 274 275 275 274 271 269 270 271 271 271 269 267 267 268 269 270 271 271 272 273 274 275 275 276 278 280 282 284
271 268 267 268 267 266 266 267 270 270 270 271 272 271 271 274 276 277 278 276 273 272 273 273 272 270 268 268 268 269 270 271 271 270 271 273 274 275 276 278 281 283 285
270 267 267 267 267 268 266 267 269 271 271 270 270 270 272 272 273 275 276 275 274 273 273 273 272 271 271 271 271 271 270 270 270 270 271 273 272 273 276 279 280 282 284
269 268 269 267 266 266 266 266 266 268 269 269 269 270 271 271 271 272 274 274 273 272 272 272 272 271 271 271 272 271 269 270 271 272 273 273 273 274 277 278 280 282 284
268 268 268 265 264 263 264 265 265 265 267 266 266 268 270 271 271 272 273 271 271 271 272 273 273 272 272 273 272 270 269 271 272 273 274 274 274 274 276 277 278 281 282
270 267 266 264 263 262 262 262 262 264 264 263 265 266 268 269 270 271 270 270 271 271 273 273 273 273 274 273 272 271 271 271 273 274 274 274 276 276 276 277 279 281 283
268 266 264 263 263 262 261 261 261 262 263 262 264 266 267 269 269 269 269 271 272 272 273 273 274 274 274 275 274 273 274 273 274 274 275 275 276 275 276 278 279 281 282
268 265 263 262 262 262 261 261 261 261 261 262 265 267 267 268 267 267 267 269 271 272 273 275 275 276 274 274 274 274 275 274 273 274 276 277 277 277 278 279 279 280 281
267 264 262 261 260 260 260 261 261 260 260 262 264 266 266 267 267 267 267 269 270 271 273 274 275 276 276 274 273 274 275 275 273 274 276 277 278 279 279 279 280 281 281
266 265 262 262 260 259 259 259 260 260 261 262 263 264 264 266 267 267 267 268 270 271 273 274 274 275 275 275 274 275 275 275 275 273 275 277 278 279 279 280 280 281 282
267 265 262 260 259 259 258 259 260 260 261 263 265 266 264 264 266 266 267 269 270 271 273 273 274 275 276 276 275 275 276 276 275 274 274 276 277 278 279 279 280 280 281
267 266 263 260 259 259 260 260 260 261 262 264 265 266 265 265 266 267 268 269 270 271 272 273 273 274 275 276 276 276 277 277 276 275 275 276 276 277 279 280 280 280 281
266 265 263 261 260 260 260 259 260 261 262 263 265 266 265 265 266 267 269 270 271 272 273 273 273 273 274 275 276 277 277 276 276 276 276 276 277 277 279 280 280 280 280
265 264 262 261 260 261 260 259 260 260 261 262 265 265 265 265 266 268 270 271 271 272 273 273 273 274 274 275 276 278 277 277 277 276 276 277 277 277 278 279 280 280 281
262 262 262 262 261 261 261 260 259 259 260 262 264 265 265 265 266 268 269 270 271 271 272 272 273 274 275 276 277 277 278 277 277 276 276 277 277 277 278 279 280 281 282
261 261 262 263 262 262 260 259 259 259 260 261 263 263 265 265 266 267 269 270 271 272 272 272 272 274 276 276 277 277 278 278 277 276 276 276 277 277 278 279 281 281 283
260 260 260 261 262 260 259 259 259 260 260 261 262 262 263 265 266 268 269 271 272 272 272 274 274 275 276 277 278 278 279 279 278 277 277 277 278 278 279 280 281 282 283
260 259 259 259 259 257 257 258 259 259 259 259 260 261 264 265 266 268 270 271 272 274 274 275 275 276 277 278 279 279 279 280 279 278 279 279 279 279 279 280 281 282 283
262 260 259 258 258 258 257 257 258 258 258 258 259 261 264 266 266 268 269 271 273 274 275 275 276 277 278 278 279 280 280 280 279 278 278 279 280 281 281 281 282 283 284
262 261 260 259 258 257 256 257 258 259 259 259 260 262 264 266 267 268 269 271 272 274 275 276 277 277 279 279 280 280 280 280 279 279 279 280 280 281 281 281 282 284 285
262 261 260 259 259 258 258 258 259 260 260 260 261 262 265 267 268 269 271 272 273 275 277 277 278 278 279 279 280 281 281 279 278 278 279 280 280 281 281 283 284 286 287
Height
5831 5830 5830 5830 5830 5830 5830 5830 5829 5829 5828 5828 5828 5827 5827 5827 5826 5826 5825 5825 5824 5824 5823 5823 5822 5822 5821 5821 5820 5820 5820 5820 5820 5819 5819 5818 5818 5817 5816 5815 5815 5814 5813
5826 5826 5825 5825 5825 5825 5825 5825 5824 5824 5824 5823 5823 5823 5823 5822 5822 5821 5821 5820 5820 5819 5818 5818 5818 5817 5817 5817 5816 5816 5816 5816 5816 5815 5815 5814 5814 5813 5812 5812 5811 5810 5809
5821 5820 5820 5820 5820 5820 5820 5819 5819 5819 5818 5818 5818 5817 5817 5817 5817 5816 5815 5815 5815 5814 5814 5813 5813 5813 5812 5812 5812 5812 5811 5811 5811 5811 5811 5810 5809 5808 5808 5807 5806 5805 5804
5815 5815 5815 5815 5814 5814 5814 5814 5813 5813 5813 5812 5812 5812 5812 5811 5811 5810 5810 5810 5809 5809 5808 5808 5808 5808 5808 5807 5807 5807 5807 5807 5806 5806 5806 5805 5804 5804 5803 5802 5801 5800 5799
5809 5809 5809 5809 5809 5808 5808 5808 5808 5807 5807 5807 5806 5806 5806 5805 5805 5804 5804 5804 5803 5803 5803 5803 5802 5802 5802 5802 5802 5802 5802 5801 5801 5801 5800 5800 5799 5798 5798 5797 5796 5795 5794
5803 5803 5803 5803 5803 5803 5802 5802 5802 5802 5801 5801 5801 5800 5800 5800 5799 5798 5798 5798 5798 5797 5797 5797 5797 5796 5796 5796 5796 5796 5796 5796 5795 5795 5795 5794 5794 5793 5792 5791 5791 5790 5789
5797 5797 5796 5796 5796 5796 5796 5796 5796 5796 5795 5795 5795 5794 5794 5794 5793 5793 5792 5792 5792 5791 5791 5791 5790 5790 5790 5790 5790 5790 5790 5789 5789 5789 5789 5788 5788 5787 5786 5785 5785 5784 5783
5790 5790 5790 5790 5790 5789 5789 5789 5789 5789 5789 5789 5789 5789 5788 5788 5787 5787 5786 5786 5786 5785 5785 5785 5784 5784 5784 5784 5784 5784 5783 5783 5783 5782 5782 5782 5781 5780 5780 5779 5778 5777 5776
5782 5782 5782 5782 5782 5782 5782 5782 5783 5783 5783 5783 5783 5783 5782 5782 5781 5781 5780 5780 5780 5779 5779 5779 5778 5778 5778 5777 5777 5777 5777 5776 5776 5776 5775 5775 5774 5774 5773 5772 5771 5770 5769
5775 5775 5775 5775 5775 5775 5775 5775 5776 5776 5776 5776 5776 5776 5776 5776 5775 5775 5774 5774 5774 5773 5773 5773 5772 5771 5771 5770 5770 5770 5770 5770 5769 5769 5768 5768 5767 5766 5765 5765 5764 5763 5762
5767 5767 5767 5767 5767 5767 5768 5768 5768 5769 5769 5769 5769 5769 5769 5769 5769 5768 5768 5768 5768 5767 5767 5766 5766 5765 5764 5764 5763 5763 5763 5762 5762 5761 5761 5760 5760 5759 5758 5757 5756 5755 5754
5758 5759 5759 5759 5759 5760 5760 5760 5761 5762 5762 5762 5762 5762 5762 5762 5762 5761 5761 5761 5761 5760 5760 5759 5759 5758 5757 5757 5756 5755 5755 5755 5754 5754 5753 5753 5752 5751 5750 5748 5747 5746 5746
5750 5750 5750 5751 5751 5751 5752 5752 5753 5754 5754 5755 5755 5755 5755 5755 5755 5754 5754 5754 5753 5753 5753 5752 5752 5751 5750 5749 5749 5748 5747 5747 5747 5746 5746 5745 5744 5742 5741 5740 5739 5738 5737
5740 5741 5741 5742 5742 5743 5744 5744 5745 5746 5746 5747 5747 5747 5747 5747 5747 5747 5747 5747 5746 5746 5745 5745 5744 5743 5743 5742 5741 5740 5739 5739 5738 5738 5737 5736 5735 5734 5733 5731 5730 5729 5728
5731 5731 5732 5733 5734 5734 5735 5736 5737 5738 5738 5739 5739 5739 5739 5739 5739 5739 5739 5739 5738 5738 5737 5737 5736 5736 5735 5734 5733 5732 5731 5730 5730 5729 5728 5727 5726 5725 5724 5723 5722 5721 5720
5722 5722 5723 5724 5725 5725 5726 5727 5728 5729 5730 5730 5730 5731 5731 5731 5730 5730 5730 5730 5729 5729 5729 5728 5728 5727 5726 5725 5724 5723 5722 5721 5720 5720 5719 5718 5718 5717 5715 5714 5713 5712 5711
5712 5713 5713 5714 5715 5716 5717 5718 5719 5720 5720 5721 5721 5722 5722 5722 5721 5721 5721 5721 5720 5720 5720 5719 5719 5718 5717 5716 5715 5714 5713 5712 5711 5710 5710 5709 5708 5707 5706 5705 5704 5703 5702
5703 5703 5704 5705 5706 5707 5708 5708 5709 5710 5711 5712 5712 5712 5712 5712 5712 5712 5711 5711 5711 5711 5710 5710 5709 5708 5708 5707 5706 5705 5704 5702 5701 5701 5700 5700 5699 5698 5697 5696 5694 5693 5692
5693 5693 5694 5695 5696 5697 5698 5699 5700 5701 5702 5702 5703 5703 5703 5703 5703 5702 5702 5702 5702 5701 5701 5700 5699 5698 5698 5697 5696 5695 5694 5693 5692 5691 5690 5689 5689 5688 5687 5686 5685 5683 5682
5683 5683 5684 5685 5686 5687 5688 5689 5690 5691 5692 5692 5693 5693 5693 5693 5693 5693 5693 5692 5692 5691 5691 5690 5689 5689 5688 5687 5686 5685 5684 5683 5682 5681 5680 5679 5678 5678 5677 5676 5674 5673 5671
5672 5672 5673 5674 5676 5676 5677 5679 5680 5681 5682 5682 5683 5683 5683 5683 5683 5683 5683 5683 5682 5682 5681 5680 5679 5678 5678 5677 5676 5675 5674 5673 5672 5670 5670 5669 5668 5667 5666 5665 5663 5662 5660
5661 5662 5663 5664 5665 5666 5667 5668 5669 5670 5671 5672 5673 5673 5673 5673 5674 5674 5673 5673 5672 5671 5671 5670 5669 5668 5668 5667 5666 5665 5663 5662 5661 5660 5659 5658 5657 5656 5655 5653 5652 5650 5648
5650 5651 5652 5653 5655 5656 5657 5658 5659 5660 5661 5661 5662 5663 5663 5663 5663 5663 5663 5663 5662 5661 5661 5660 5659 5658 5657 5656 5655 5654 5653 5652 5650 5649 5648 5647 5646 5645 5643 5642 5640 5639 5637
5640 5640 5642 5643 5644 5646 5647 5648 5649 5650 5651 5651 5652 5653 5653 5653 5653 5653 5653 5652 5651 5651 5650 5650 5649 5648 5647 5646 5644 5643 5642 5641 5639 5638 5637 5636 5634 5633 5632 5630 5629 5627 5625
5629 5630 5631 5633 5634 5635 5637 5638 5639 5639 5640 5641 5642 5642 5643 5643 5643 5643 5642 5642 5641 5641 5640 5639 5638 5637 5636 5635 5634 5632 5631 5630 5628 5627 5626 5624 5623 5621 5620 5619 5617 5615 5613
5619 5620 5621 5623 5624 5625 5626 5627 5628 5629 5630 5630 5631 5632 5632 5632 5632 5632 5632 5632 5631 5630 5629 5628 5627 5626 5625 5623 5622 5621 5620 5618 5617 5616 5615 5613 5612 5610 5608 5607 5605 5603 5601